Regional Weather Roundup
Issued by NWS

Home | Current Version | Previous Version | Graphics & Text | Print | Product List | Glossary On
Versions: 1 2 3 4 5 6 7 8 9 10 11 12 13 14 15 16 17 18 19 20 21 22 23 24 25 26 27 28 29 30 31 32 33 34 35 36 37 38 39 40 41 42 43 44 45 46 47 48 49 50
000
ASUS43 KTOP 240659
RWRKS

WEATHER ROUNDUP FOR KANSAS
NATIONAL WEATHER SERVICE GOODLAND KS
200 AM CDT SUN SEP 24 2017

NOTE:  "FAIR" INDICATES FEW OR NO CLOUDS BELOW 12,000 FEET WITH NO
SIGNIFICANT WEATHER AND/OR OBSTRUCTIONS TO VISIBILITY.

KSZ001>006-013>018-027>032-041>047-240800-
NORTHWEST KANSAS

CITY           SKY/WX    TMP DP  RH WIND       PRES   REMARKS
GOODLAND       HVY RAIN  56  55  97 NW21G32   29.87R VSB 3/4
HAYS           MOCLDY    73  61  65 SE15      29.87S
HILL CITY      LGT RAIN  65  64  97 E3        29.87F
RUSSELL        MOCLDY    74  62  66 S16       29.87R
$$

KSZ061>065-074>080-084>089-240800-
SOUTHWEST KANSAS

CITY           SKY/WX    TMP DP  RH WIND       PRES   REMARKS
DODGE CITY     MOCLDY    73  61  65 S17       29.89R
ELKHART          N/A     60  62 100 W5          N/A
GARDEN CITY    RAIN      66  63  90 S10       29.90F FOG
GREAT BEND     PTCLDY    73  63  70 SE15      29.89R
LIBERAL        CLOUDY    69  63  81 S14       29.88F
$$

KSZ066>073-081>083-090>101-240800-
SOUTHEAST KANSAS

CITY           SKY/WX    TMP DP  RH WIND       PRES   REMARKS
CHANUTE        CLEAR     71  65  81 SE6       29.94S
COFFEYVILLE    PTCLDY    72  65  78 SE7       29.92S
HUTCHINSON     PTCLDY    74  65  73 SE13      29.89S
MEDICINE LODGE   N/A     73  62  68 SE10      29.88S
NEWTON         CLEAR     69  63  81 SE9       29.93R
PARSONS        CLEAR     73  63  70 VRB3      29.95R
WICHITA INTL   PTCLDY    75  66  73 SE13      29.91R
WICHITA JABRA  CLEAR     70  66  87 SE7       29.92R
WINFIELD       CLEAR     73  66  78 SE7       29.92R
$$

KSZ007>012-019>026-033>040-048>060-102>105-240800-
NORTHEAST KANSAS

CITY           SKY/WX    TMP DP  RH WIND       PRES   REMARKS
CONCORDIA      PTCLDY    73  63  70 S14       29.88S
EMPORIA        CLEAR     70  63  78 SE8       29.93R
LAWRENCE       CLEAR     68  67  96 E6        29.93S
MANHATTAN      CLEAR     73  64  73 S6        29.91R
OLATHE IND     CLEAR     74  66  76 SE9       29.95S
OLATHE EXE     CLEAR     72  68  87 SE6       29.95S
SALINA         CLEAR     76  63  64 SE12      29.88S
TOPEKA BILLARD CLEAR     70  67  90 CALM      29.92F
TOPEKA FORBES  CLEAR     70  66  87 SE5       29.93S
$$




USA.gov is the U.S. government's official web portal to all federal, state and local government web resources and services.